This is the latest recevied weather packets stored in our database for station/object K6HFP. If no packets are shown the sender has not sent any weather packets the latest 10 day(s).
| Time | Temp. | Humidity | Pressure | Rain* | Wind** | Luminosity | Snow |
|---|---|---|---|---|---|---|---|
| 1778005950 | 13.89° C | 84% | 1014.2 hPa | 0 mm | - | 619 W/m² | - |
| 1778005646 | 13.33° C | 85% | 1014.4 hPa | 0 mm | - | 498 W/m² | - |
| 1778005344 | 13.33° C | 84% | 1014.6 hPa | 0 mm | - | 508 W/m² | - |
| 1778005040 | 13.33° C | 84% | 1014.6 hPa | 0 mm | - | 402 W/m² | - |
| 1778004737 | 12.78° C | 86% | 1014.7 hPa | 0 mm | - | 379 W/m² | - |
| 1778004434 | 12.78° C | 86% | 1014.4 hPa | 0 mm | - | 321 W/m² | - |
| 1778004131 | 12.78° C | 87% | 1014.7 hPa | 0 mm | - | 342 W/m² | - |
| 1778003827 | 12.78° C | 87% | 1014.8 hPa | 0 mm | - | 296 W/m² | - |
| 1778003523 | 12.78° C | 87% | 1014.8 hPa | 0 mm | - | 301 W/m² | - |
| 1778003220 | 12.78° C | 87% | 1014.4 hPa | 0 mm | - | 286 W/m² | - |
| 1778002916 | 12.78° C | 88% | 1014.7 hPa | 0 mm | - | 233 W/m² | - |
| 1778002613 | 12.22° C | 88% | 1014.6 hPa | 0 mm | - | 280 W/m² | - |
| 1778002310 | 12.22° C | 89% | 1014.4 hPa | 0 mm | - | 264 W/m² | - |
| 1778002007 | 12.22° C | 89% | 1014.4 hPa | 0 mm | - | 264 W/m² | - |
| 1778001704 | 12.22° C | 92% | 1014.3 hPa | 0 mm | - | 255 W/m² | - |
| 1778001403 | 11.67° C | 93% | 1014.6 hPa | 0 mm | - | 310 W/m² | - |
| 1778001101 | 11.67° C | 93% | 1014.4 hPa | 0 mm | - | 271 W/m² | - |
| 1778000798 | 11.67° C | 93% | 1014.4 hPa | 0 mm | - | 163 W/m² | - |
| 1778000494 | 11.67° C | 92% | 1014.7 hPa | 0 mm | - | 152 W/m² | - |
| 1778000189 | 11.11° C | 92% | 1014.6 hPa | 0 mm | - | 113 W/m² | - |
| 1777999886 | 11.11° C | 92% | 1014.7 hPa | 0 mm | - | 95 W/m² | - |
| 1777999581 | 11.11° C | 92% | 1014.4 hPa | 0 mm | - | 133 W/m² | - |
| 1777999279 | 11.67° C | 93% | 1014.6 hPa | 0 mm | - | 155 W/m² | - |
| 1777998977 | 11.11° C | 93% | 1014.4 hPa | 0 mm | - | 141 W/m² | - |
| 1777998674 | 11.11° C | 93% | 1014.6 hPa | 0 mm | - | 99 W/m² | - |
* Rain latest hour (hover to see other rain measurements)
** Current wind speed in m/s (hover to see current wind gust speed)